NKS984 KRIC-KFLL

Flight info

Callsign NKS984
Flight time N/A
Altitude 34000
Route HOUKY MAZON KOHLS Q97 PRMUS CUUDA3
Aircraft A21N/M-SDE2E3FGHIRWXY/LB1

Departure

Time 2026-05-03 21:13
Airport Richmond International Airport (KRIC)

Arrival

Time N/A
Airport Fort Lauderdale Hollywood International Airport (KFLL)
Time Latitude Longitude Altitude Speed Heading
2026-05-03 20:58 37.50624 -77.33056 175 ft 0 kts 284°
2026-05-03 21:01 37.50621 -77.33037 175 ft 4 kts 249°
2026-05-03 21:02 37.50632 -77.33030 175 ft 4 kts 175°
2026-05-03 21:02 37.50650 -77.33030 175 ft 0 kts 193°
2026-05-03 21:04 37.50627 -77.33036 175 ft 9 kts 188°
2026-05-03 21:04 37.50520 -77.33052 174 ft 22 kts 186°
2026-05-03 21:04 37.50388 -77.32990 172 ft 19 kts 87°
2026-05-03 21:05 37.50459 -77.32911 174 ft 12 kts 68°
2026-05-03 21:05 37.50448 -77.32805 173 ft 13 kts 101°
2026-05-03 21:05 37.50439 -77.32667 170 ft 18 kts 94°
2026-05-03 21:05 37.50428 -77.32499 170 ft 20 kts 95°
2026-05-03 21:06 37.50419 -77.32329 173 ft 20 kts 93°
2026-05-03 21:06 37.50410 -77.32149 172 ft 22 kts 94°
2026-05-03 21:06 37.50397 -77.31951 172 ft 23 kts 95°
2026-05-03 21:06 37.50384 -77.31741 171 ft 25 kts 92°
2026-05-03 21:07 37.50302 -77.31572 171 ft 24 kts 148°
2026-05-03 21:07 37.50151 -77.31455 167 ft 27 kts 148°
2026-05-03 21:07 37.49996 -77.31328 167 ft 27 kts 147°
2026-05-03 21:07 37.49834 -77.31200 167 ft 27 kts 147°
2026-05-03 21:08 37.49673 -77.31073 168 ft 27 kts 147°
2026-05-03 21:08 37.49544 -77.30969 170 ft 18 kts 148°
2026-05-03 21:08 37.49495 -77.30895 169 ft 10 kts 85°
2026-05-03 21:08 37.49528 -77.30816 169 ft 10 kts 57°
2026-05-03 21:09 37.49539 -77.30793 169 ft 0 kts 57°
2026-05-03 21:09 37.49541 -77.30791 169 ft 1 kts 57°
2026-05-03 21:09 37.49541 -77.30790 169 ft 0 kts 57°
2026-05-03 21:10 37.49557 -77.30758 169 ft 12 kts 57°
2026-05-03 21:10 37.49634 -77.30733 169 ft 12 kts 328°
2026-05-03 21:11 37.49652 -77.30747 169 ft 0 kts 327°
2026-05-03 21:12 37.49770 -77.30842 169 ft 49 kts 327°
2026-05-03 21:12 37.50213 -77.31197 170 ft 104 kts 327°
2026-05-03 21:12 37.50994 -77.31819 174 ft 159 kts 326°
2026-05-03 21:13 37.51945 -77.32548 646 ft 157 kts 326°
2026-05-03 21:13 37.52874 -77.33233 1320 ft 153 kts 326°
2026-05-03 21:13 37.53826 -77.33948 1813 ft 165 kts 326°
2026-05-03 21:13 37.54863 -77.34758 2080 ft 185 kts 326°
2026-05-03 21:14 37.56020 -77.35688 2367 ft 210 kts 326°
2026-05-03 21:14 37.57306 -77.36723 2843 ft 230 kts 326°
2026-05-03 21:14 37.58681 -77.37815 3508 ft 239 kts 326°
2026-05-03 21:14 37.60124 -77.38973 4216 ft 249 kts 326°
2026-05-03 21:15 37.61719 -77.39895 5018 ft 258 kts 347°
2026-05-03 21:15 37.63521 -77.39795 5882 ft 265 kts 14°
2026-05-03 21:15 37.65127 -77.38611 6733 ft 273 kts 42°
2026-05-03 21:15 37.66212 -77.36638 7468 ft 283 kts 60°
2026-05-03 21:16 37.66911 -77.34277 8206 ft 292 kts 76°
2026-05-03 21:16 37.66912 -77.31685 8931 ft 303 kts 104°
2026-05-03 21:16 37.65905 -77.29345 9628 ft 309 kts 136°
2026-05-03 21:16 37.64189 -77.27710 10275 ft 314 kts 153°
2026-05-03 21:17 37.62158 -77.26504 10570 ft 332 kts 162°
2026-05-03 21:17 37.60688 -77.25838 10757 ft 345 kts 165°
2026-05-03 21:17 37.57508 -77.24564 11133 ft 371 kts 166°
2026-05-03 21:17 37.55017 -77.23557 11404 ft 390 kts 165°
2026-05-03 21:18 37.52406 -77.22431 11887 ft 401 kts 164°
2026-05-03 21:18 37.49760 -77.21222 12515 ft 407 kts 163°
2026-05-03 21:18 37.47090 -77.19959 13180 ft 411 kts 163°
2026-05-03 21:18 37.44400 -77.18664 13852 ft 416 kts 163°
2026-05-03 21:19 37.41694 -77.17356 14433 ft 420 kts 163°
2026-05-03 21:19 37.38941 -77.16027 15021 ft 424 kts 164°
2026-05-03 21:19 37.36128 -77.14891 15607 ft 424 kts 169°
2026-05-03 21:19 37.33291 -77.14017 16177 ft 424 kts 175°
2026-05-03 21:20 37.30371 -77.13731 16742 ft 419 kts 189°
2026-05-03 21:20 37.27527 -77.14331 17288 ft 412 kts 201°
2026-05-03 21:20 37.24807 -77.15443 17868 ft 411 kts 207°
2026-05-03 21:20 37.22157 -77.16805 18354 ft 413 kts 210°
2026-05-03 21:21 37.19533 -77.18306 18835 ft 414 kts 212°
2026-05-03 21:21 37.16919 -77.19855 19335 ft 416 kts 212°
2026-05-03 21:21 37.14288 -77.21415 19836 ft 418 kts 212°
2026-05-03 21:21 37.11675 -77.22943 20287 ft 421 kts 212°
2026-05-03 21:22 37.09002 -77.24482 20692 ft 425 kts 212°
2026-05-03 21:22 37.06298 -77.26018 21156 ft 428 kts 211°